Airfield :
LOGIN :

Register | Disclaimer

   EN    FR    IT 

 










Legend :    VFR   Marginal VFR   IFR   Intensive IFR   Very Intensive IFR
Visi :
Ceiling :
>= 8 km
>= 3000ft
5 to 8 km
1000 to 3000 ft
1500m to 5 km
500 to 1000 ft
800 to 1500m
200 to 500 ft
< 800m
< 200 ft
Symbols :   Thunderstorms  Fog  Heavy snow  Heavy precipitations  Wind > 20 kt
SIGMETs :     Misc.  Thunderstorms  Icing  Turbulence  Mountain Waves  Volcanic Ashes







- Airport Elevation : 1106 ft
- Download approach charts


LFSO - Nancy / Ochey

CURRENT METAR :
  • 241930Z AUTO VRB03KT CAVOK 16/08 Q1015

EXPIRED METARs :
  • 241900Z AUTO 35003KT CAVOK 19/08 Q1015
  • 241830Z AUTO 34005KT CAVOK 20/08 Q1014
  • 241800Z AUTO 33004KT CAVOK 20/09 Q1014
  • 241730Z AUTO 32007KT CAVOK 20/07 Q1014
  • 241700Z AUTO 33008KT CAVOK 21/08 Q1014

TAF TAF LFSO
Valid from the 24 at 15:00 until the 25 at 15:00 UTC


241400Z 2415/2515 35005KT CAVOK
No reported NOTAMs for that airfield.



MET'MAP, your aeronautical weather chart ! - Copyright ORBIFLY December 2007 - Disclaimer

ORBIFLY MET'MAP TEAM :

Programming & Development : Alexandra Zaïnal
Concept & Development : Baudouin d'Aumeries
Co-Development & Prog : Marc-Olivier Méhu
Technical & hardware support : Manuel Goepfert

Contact : metmap@orbifly.com




SOURCES & CREDITS :

   NOAA